Location: *
(40.9167°N, 9.5000°E)
Time: 21:21:15
(UTC+00:00)

Cosmos 2341 Rocket - Pass Details

Date: 09 April 2020
Orbit: 968 x 1004 km, 82.9° (Epoch: 31 May)

Event Time Altitude Azimuth Distance (km) Brightness Sun altitude
Rises 19:00:03 0° 358° (N) 3,735 7.4 -12.4°
Reaches altitude 10° 19:02:45 10° 6° (N) 2,784 6.6 -12.9°
Maximum altitude 19:08:48 43° 77° (ENE) 1,375 4.4 -14.0°
Enters shadow 19:13:28 17° 142° (SE) 2,317 5.4 -14.8°
